This is the latest recevied weather packets stored in our database for station/object CQ0XVC-11. If no packets are shown the sender has not sent any weather packets the latest 10 day(s).
| Time | Temp. | Humidity | Pressure | Rain* | Wind** | Luminosity | Snow |
|---|---|---|---|---|---|---|---|
| 1777366561 | 17.78° C | 58% | 996.4 hPa | 0 mm | - | - | - |
| 1777366259 | 17.78° C | 57% | 996.5 hPa | 0 mm | - | - | - |
| 1777365957 | 17.78° C | 58% | 996.4 hPa | 0 mm | - | - | - |
| 1777365353 | 17.78° C | 61% | 996.5 hPa | 0 mm | - | - | - |
| 1777365081 | 17.22° C | 61% | 996.4 hPa | 0 mm | - | - | - |
| 1777365050 | 17.22° C | 61% | 996.4 hPa | 0 mm | - | - | - |
| 1777364782 | 16.67° C | 65% | 996.4 hPa | 0 mm | - | - | - |
| 1777364748 | 16.67° C | 65% | 996.4 hPa | 0 mm | - | - | - |
| 1777364446 | 16.11° C | 66% | 996.5 hPa | 0 mm | - | - | - |
| 1777364144 | 15.56° C | 65% | 996.4 hPa | 0 mm | - | - | - |
| 1777363902 | 15.56° C | 65% | 996.6 hPa | 0 mm | - | - | - |
| 1777363841 | 15.56° C | 65% | 996.6 hPa | 0 mm | - | - | - |
| 1777363540 | 15.56° C | 66% | 996.6 hPa | 0 mm | - | - | - |
| 1777363237 | 15.56° C | 66% | 996.5 hPa | 0 mm | - | - | - |
| 1777362976 | 15° C | 67% | 996.6 hPa | 0 mm | - | - | - |
| 1777362935 | 15° C | 67% | 996.6 hPa | 0 mm | - | - | - |
| 1777362633 | 15.56° C | 65% | 996.5 hPa | 0 mm | - | - | - |
| 1777362365 | 15.56° C | 66% | 996.4 hPa | 0 mm | - | - | - |
| 1777362331 | 15.56° C | 66% | 996.4 hPa | 0 mm | - | - | - |
| 1777362282 | 15.56° C | 66% | 996.4 hPa | 0 mm | - | - | - |
| 1777361979 | 15.56° C | 70% | 996.3 hPa | 0 mm | - | - | - |
| 1777361719 | 15° C | 71% | 996.3 hPa | 0 mm | - | - | - |
| 1777361678 | 15° C | 71% | 996.3 hPa | 0 mm | - | - | - |
| 1777361375 | 14.44° C | 72% | 996.2 hPa | 0 mm | - | - | - |
| 1777361073 | 13.89° C | 74% | 996.4 hPa | 0 mm | - | - | - |
* Rain since midnight (hover to see other rain measurements)
** Current wind speed in m/s (hover to see current wind gust speed)